Location: Home
(42.5358°N, 72.7383°W)
Time: 03:27:35
(UTC-04:00)

Vanguard 1 - Pass Details

Date: 30 May 2022
Orbit: 649 x 3832 km, 34.2° (Epoch: 24 June)

Event Time Altitude Azimuth Distance (km) Brightness Sun altitude
Exits shadow 02:13:46 18° 241° (WSW) 3,975 12.7 -22.7°
Maximum altitude 02:24:45 63° 168° (SSE) 3,154 12.3 -22.0°
Drops below altitude 10° 02:46:20 10° 95° (E) 6,885 14.6 -20.2°
Sets 02:52:01 0° 93° (E) 7,976 15.1 -19.7°
